Aeroporto :
LOGIN :

Iscrizione | Disclaimer

   EN    FR    IT 

 










Sommario :    VFR   VFR Marginale   IFR   IFR Intensivo   IFR Molto Intensivo
Visibilità : 
Base nubi : 
>= 8 km
>= 3000ft
5 / 8 km
1000 / 3000 ft
1500m / 5 km
500 / 1000 ft
800 / 1500m
200 / 500 ft
< 800m
< 200 ft
Simboli :   Temporali  Nebbia  Neve Forte  Precipitazioni Forti  Vento > 20 kt
SIGMETs :   Varie  Temporali  Ghiacco  Turbolenza  Onda orograficha  Ceneri Vulcaniche







- Altitudine del aeroporto : 56 ft


LPOV - Ovar Air Base

ULTIMO METAR :
  • 210100Z 35004KT 3000 BR SCT002 BKN005 16/16 Q1019

METARs OBSOLETI :
  • 210000Z 35009KT 9999 SCT002 BKN005 16/16 Q1019
  • 202300Z 35009KT 9999 SCT003 BKN006 17/16 Q1019

TAF TAF LPOV
Valido dal 21 a 00 ore il 22 a 00 ore UTC


202307Z 2100/2124 35005KT 9999 FEW002 SCT006
PROB40 2100/2110 VRB02KT 0400 FG BKN001
BECMG 2110/2112 34010KT CAVOK
PROB40
TEMPO 2112/2118 35012G25KT
BECMG 2120/2122 VRB02KT
Nessun NOTAM noto per questo aeroporto.



MetMap, La meteo Aeronautica in un colpo d'occhio ! - Copyright ORBIFLY Dicembre 2007 - Disclaimer

ORBIFLY MET'MAP TEAM :

Programmazione e sviluppo : Alexandra Zaïnal
Concezione e sviluppo : Baudouin d'Aumeries
Co-Programmazione e sviluppo : Marc-Olivier Méhu
Supporto tecnico e logistico : Manuel Goepfert
Aiuto per la traduzione : Arnaldo La Scala

Contatto : metmap@orbifly.com




FONTI E CREDITI :

   NOAA